• In Moldova, Republic
  • List of Countries
  • For 7 days
  • Water Temperature
  • Satellite Maps
  • Weather Map
  • Weather Widgets
  • user-avatar
    Login

    Hourly Weather Satif

    Today, 21 July, Friday

    Time Temperature Precipitation Wind Pressure Humidity
    00:00 +27°C° 0 mm 1 mps 672 mmHg 46%
    01:00 +27°C° 0 mm 1 mps 672 mmHg 47%
    02:00 +26°C° 0 mm 1 mps 671 mmHg 48%
    03:00 +26°C° 0 mm 1 mps 671 mmHg 49%
    04:00 +26°C° 0 mm 1 mps 671 mmHg 48%
    05:00 +27°C° 0 mm 1 mps 672 mmHg 47%
    06:00 +27°C° 0 mm 1 mps 672 mmHg 46%
    07:00 +28°C° 0 mm 2 mps 672 mmHg 40%
    08:00 +30°C° 0 mm 2 mps 673 mmHg 34%
    09:00 +31°C° 0 mm 3 mps 673 mmHg 28%
    10:00 +33°C° 0 mm 3 mps 674 mmHg 27%
    11:00 +34°C° 0 mm 3 mps 674 mmHg 26%
    12:00 +35°C° 0 mm 3 mps 674 mmHg 24%
    13:00 +35°C° 0 mm 3 mps 674 mmHg 25%
    14:00 +35°C° 0 mm 4 mps 674 mmHg 25%
    15:00 +35°C° 0 mm 4 mps 674 mmHg 25%
    16:00 +35°C° 0.1 mm 4 mps 674 mmHg 25%
    17:00 +34°C° 0.1 mm 3 mps 674 mmHg 26%
    18:00 +34°C° 0.1 mm 3 mps 674 mmHg 27%
    19:00 +33°C° 0 mm 3 mps 674 mmHg 31%
    20:00 +31°C° 0 mm 3 mps 674 mmHg 34%
    21:00 +30°C° 0 mm 2 mps 674 mmHg 38%
    22:00 +29°C° 0 mm 2 mps 674 mmHg 39%
    23:00 +29°C° 0 mm 2 mps 674 mmHg 39%

    Tomorrow, 22 July, Saturday

    Time Temperature Precipitation Wind Pressure Humidity
    00:00 +29°C° 0 mm 2 mps 674 mmHg 40%
    01:00 +29°C° 0 mm 2 mps 674 mmHg 36%
    02:00 +30°C° 0 mm 2 mps 674 mmHg 33%
    03:00 +30°C° 0 mm 2 mps 674 mmHg 29%
    04:00 +30°C° 0 mm 2 mps 674 mmHg 30%
    05:00 +30°C° 0 mm 2 mps 674 mmHg 31%
    06:00 +29°C° 0 mm 2 mps 674 mmHg 32%
    07:00 +31°C° 0 mm 3 mps 675 mmHg 28%
    08:00 +34°C° 0 mm 4 mps 676 mmHg 25%
    09:00 +36°C° 0 mm 6 mps 676 mmHg 22%
    10:00 +38°C° 0 mm 6 mps 676 mmHg 19%
    11:00 +39°C° 0 mm 7 mps 677 mmHg 17%
    12:00 +41°C° 0 mm 8 mps 677 mmHg 15%
    13:00 +41°C° 0 mm 7 mps 677 mmHg 15%
    14:00 +41°C° 0 mm 7 mps 676 mmHg 15%
    15:00 +41°C° 0 mm 6 mps 676 mmHg 15%
    16:00 +40°C° 0 mm 5 mps 676 mmHg 17%
    17:00 +39°C° 0 mm 5 mps 676 mmHg 19%
    18:00 +37°C° 0 mm 4 mps 676 mmHg 20%
    19:00 +36°C° 0 mm 3 mps 676 mmHg 22%
    20:00 +35°C° 0 mm 3 mps 676 mmHg 23%
    21:00 +34°C° 0 mm 2 mps 676 mmHg 25%
    22:00 +32°C° 0.2 mm 2 mps 676 mmHg 25%
    23:00 +32°C° 0.2 mm 2 mps 676 mmHg 25%

    Day after tomorrow, 23 July, Sunday

    Time Temperature Precipitation Wind Pressure Humidity
    00:00 +32°C° 0.2 mm 2 mps 676 mmHg 25%
    01:00 +32°C° 0.1 mm 2 mps 676 mmHg 25%
    02:00 +31°C° 0.1 mm 2 mps 676 mmHg 25%
    03:00 +31°C° 0.1 mm 2 mps 676 mmHg 25%
    04:00 +31°C° 0.2 mm 2 mps 676 mmHg 25%
    05:00 +31°C° 0.2 mm 2 mps 676 mmHg 25%
    06:00 +31°C° 0.2 mm 2 mps 677 mmHg 25%
    07:00 +34°C° 0 mm 4 mps 677 mmHg 22%
    08:00 +36°C° 0 mm 5 mps 677 mmHg 19%
    09:00 +39°C° 0 mm 6 mps 678 mmHg 16%
    10:00 +40°C° 0 mm 7 mps 678 mmHg 15%
    11:00 +41°C° 0 mm 7 mps 678 mmHg 14%
    12:00 +43°C° 0 mm 7 mps 678 mmHg 12%
    13:00 +43°C° 0 mm 7 mps 678 mmHg 13%
    14:00 +42°C° 0 mm 6 mps 677 mmHg 13%
    15:00 +42°C° 0 mm 6 mps 677 mmHg 13%
    16:00 +41°C° 0 mm 6 mps 677 mmHg 15%
    17:00 +40°C° 0 mm 6 mps 677 mmHg 17%
    18:00 +39°C° 0 mm 5 mps 676 mmHg 19%
    19:00 +36°C° 0.1 mm 5 mps 676 mmHg 22%
    20:00 +35°C° 0.1 mm 5 mps 677 mmHg 24%
    21:00 +34°C° 0.1 mm 5 mps 677 mmHg 27%
    22:00 +34°C° 0.1 mm 5 mps 677 mmHg 26%
    23:00 +33°C° 0.1 mm 4 mps 677 mmHg 25%

    24 July, Monday

    Time Temperature Precipitation Wind Pressure Humidity
    00:00 +33°C° 0.1 mm 4 mps 676 mmHg 24%
    01:00 +32°C° 0.1 mm 4 mps 676 mmHg 27%
    02:00 +31°C° 0.1 mm 3 mps 676 mmHg 30%
    03:00 +30°C° 0.1 mm 3 mps 675 mmHg 33%
    04:00 +30°C° 0 mm 2 mps 675 mmHg 36%
    05:00 +29°C° 0 mm 2 mps 675 mmHg 39%
    06:00 +29°C° 0 mm 2 mps 675 mmHg 42%
    07:00 +30°C° 0 mm 3 mps 675 mmHg 39%
    08:00 +32°C° 0 mm 4 mps 676 mmHg 35%
    09:00 +34°C° 0 mm 4 mps 676 mmHg 32%
    10:00 +35°C° 0 mm 5 mps 676 mmHg 30%
    11:00 +36°C° 0 mm 5 mps 676 mmHg 29%
    12:00 +36°C° 0 mm 6 mps 676 mmHg 27%
    13:00 +36°C° 0 mm 6 mps 676 mmHg 30%
    14:00 +36°C° 0 mm 6 mps 675 mmHg 32%
    15:00 +35°C° 0 mm 5 mps 675 mmHg 35%
    16:00 +34°C° 0 mm 5 mps 675 mmHg 40%
    17:00 +32°C° 0 mm 5 mps 674 mmHg 46%
    18:00 +30°C° 0 mm 4 mps 674 mmHg 52%
    19:00 +29°C° 0 mm 4 mps 674 mmHg 57%
    20:00 +27°C° 0 mm 3 mps 674 mmHg 61%
    21:00 +26°C° 0 mm 3 mps 674 mmHg 66%
    22:00 +26°C° 0 mm 2 mps 674 mmHg 68%
    23:00 +25°C° 0 mm 2 mps 674 mmHg 71%

    25 July, Tuesday

    Time Temperature Precipitation Wind Pressure Humidity
    00:00 +24°C° 0 mm 2 mps 673 mmHg 73%
    01:00 +24°C° 0 mm 2 mps 673 mmHg 75%
    02:00 +23°C° 0 mm 2 mps 673 mmHg 77%
    03:00 +23°C° 0 mm 2 mps 672 mmHg 79%
    04:00 +21°C° 0 mm 2 mps 673 mmHg 78%
    05:00 +22°C° 0 mm 1 mps 673 mmHg 77%
    06:00 +22°C° 0 mm 1 mps 673 mmHg 76%
    07:00 +24°C° 0 mm 1 mps 673 mmHg 64%
    08:00 +26°C° 0 mm 2 mps 673 mmHg 52%
    09:00 +27°C° 0 mm 2 mps 674 mmHg 40%
    10:00 +29°C° 0 mm 2 mps 674 mmHg 36%
    11:00 +30°C° 0 mm 2 mps 674 mmHg 32%
    12:00 +31°C° 0 mm 3 mps 674 mmHg 27%
    13:00 +33°C° 0 mm 3 mps 674 mmHg 27%
    14:00 +33°C° 0 mm 3 mps 674 mmHg 28%
    15:00 +33°C° 0 mm 4 mps 673 mmHg 28%
    16:00 +32°C° 0 mm 4 mps 673 mmHg 33%
    17:00 +30°C° 0 mm 4 mps 673 mmHg 39%
    18:00 +29°C° 0 mm 5 mps 672 mmHg 45%
    19:00 +27°C° 0 mm 4 mps 672 mmHg 51%
    20:00 +26°C° 0 mm 3 mps 672 mmHg 57%
    21:00 +25°C° 0 mm 3 mps 672 mmHg 62%
    22:00 +24°C° 0 mm 2 mps 672 mmHg 64%
    23:00 +24°C° 0 mm 2 mps 672 mmHg 66%

    26 July, Wednesday

    Time Temperature Precipitation Wind Pressure Humidity
    00:00 +23°C° 0 mm 2 mps 672 mmHg 67%
    01:00 +23°C° 0 mm 2 mps 672 mmHg 69%
    02:00 +21°C° 0 mm 2 mps 672 mmHg 71%
    03:00 +21°C° 0 mm 2 mps 672 mmHg 73%
    04:00 +22°C° 0 mm 1 mps 672 mmHg 73%
    05:00 +21°C° 0 mm 1 mps 672 mmHg 73%
    06:00 +21°C° 0 mm 1 mps 673 mmHg 72%
    07:00 +23°C° 0 mm 1 mps 673 mmHg 64%
    08:00 +24°C° 0 mm 1 mps 673 mmHg 55%
    09:00 +26°C° 0 mm 1 mps 674 mmHg 46%
    10:00 +27°C° 0 mm 2 mps 674 mmHg 41%
    11:00 +29°C° 0 mm 2 mps 674 mmHg 35%
    12:00 +30°C° 0 mm 3 mps 674 mmHg 30%
    13:00 +32°C° 0 mm 4 mps 674 mmHg 30%
    14:00 +32°C° 0 mm 4 mps 674 mmHg 29%
    15:00 +33°C° 0 mm 5 mps 674 mmHg 29%
    16:00 +32°C° 0 mm 5 mps 674 mmHg 32%
    17:00 +30°C° 0 mm 4 mps 673 mmHg 35%
    18:00 +29°C° 0 mm 4 mps 673 mmHg 39%
    19:00 +28°C° 0 mm 4 mps 673 mmHg 43%
    20:00 +27°C° 0 mm 3 mps 673 mmHg 47%
    21:00 +25°C° 0 mm 3 mps 674 mmHg 51%
    22:00 +25°C° 0 mm 2 mps 673 mmHg 53%
    23:00 +25°C° 0 mm 2 mps 673 mmHg 54%
    Show more